User: anonymous   Login
Location: Coffee Creek Observatory
(38.8077°N, 94.7179°W)
Time: 21:02:44
(UTC-05:00)
Language:

Lacrosse 4 Rocket - Orbit

View from above orbital plane
View from above orbital plane
View from above satellite
View from above satellite

Ground track
Ground track

The orbit data is extracted from the following two-line orbital elements,

1 26474U 00047B   15089.08469720  .00003636  00000-0  33978-3 0  9994
2 26474 067.9949 278.9264 0055406 136.7805 223.7705 14.94158004794290
Epoch (UTC): 30 March 2015 02:01:57
Eccentricity: 0.0055406
inclination: 67.9949°
perigee height: 546 km
apogee height: 623 km
right ascension of ascending node: 278.9264°
argument of perigee: 136.7805°
revolutions per day: 14.94158004
mean anomaly at epoch: 223.7705°
orbit number at epoch: 79429

The dashed part of the orbit path shows where the satellite is in the earth's shadow,  

DLR